| time (UTC) | temp C | wind direction | speed KPH | gust KPH | rain 1hr cm | rain 24hr cm | rain mn cm | humidity % | barometer mb |
| 20260507100402 | 7 | 134 | 1.6 | 1.6 | 0.00 | 0.00 | 0.00 | 43 | 1007.6 |
| 20260507094948 | 8 | 264 | 4.8 | 4.8 | 0.00 | 0.00 | 0.00 | 43 | 1007.7 |
| 20260507091917 | 7 | 289 | 8.0 | 9.7 | 0.00 | 0.00 | 0.00 | 44 | 1007.9 |
| 20260507080403 | 7 | 334 | 3.2 | 4.8 | 0.00 | 0.00 | 0.00 | 57 | 1008.1 |
| 20260507074949 | 7 | 240 | 8.0 | 8.0 | 0.00 | 0.00 | 0.00 | 56 | 1008.0 |
| 20260507073433 | 7 | 309 | 6.4 | 6.4 | 0.00 | 0.00 | 0.00 | 56 | 1007.9 |
| 20260507070403 | 7 | 287 | 0.0 | 0.0 | 0.00 | 0.00 | 0.00 | 55 | 1007.9 |
| 20260507064950 | 6 | 235 | 0.0 | 1.6 | 0.00 | 0.00 | 0.00 | 57 | 1007.7 |
| 20260507063435 | 6 | 263 | 3.2 | 6.4 | 0.00 | 0.00 | 0.00 | 57 | 1007.8 |
| 20260507060405 | 6 | 213 | 1.6 | 4.8 | 0.00 | 0.00 | 0.00 | 57 | 1007.5 |
| 20260507054952 | 6 | 263 | 1.6 | 3.2 | 0.00 | 0.00 | 0.00 | 57 | 1007.3 |
| 20260507053436 | 5 | 206 | 1.6 | 3.2 | 0.00 | 0.00 | 0.00 | 56 | 1007.5 |
| 20260507050406 | 4 | 245 | 3.2 | 4.8 | 0.00 | 0.00 | 0.00 | 56 | 1007.4 |
| 20260507044951 | 3 | 159 | 3.2 | 3.2 | 0.00 | 0.00 | 0.00 | 59 | 1007.3 |
| 20260507043437 | 3 | 148 | 3.2 | 4.8 | 0.00 | 0.00 | 0.00 | 63 | 1007.3 |
| 20260507041921 | 2 | 154 | 3.2 | 4.8 | 0.00 | 0.00 | 0.00 | 67 | 1007.2 |
| 20260507040406 | 1 | 142 | 0.0 | 1.6 | 0.00 | 0.00 | 0.00 | 74 | 1007.1 |
| 20260507034952 | 0 | 142 | 1.6 | 1.6 | 0.00 | 0.00 | 0.00 | 76 | 1007.3 |
| 20260507033439 | 0 | 142 | 3.2 | 4.8 | 0.00 | 0.00 | 0.00 | 77 | 1007.2 |
| 20260507031921 | -1 | 154 | 4.8 | 4.8 | 0.00 | 0.00 | 0.00 | 79 | 1006.9 |
| 20260507030406 | -1 | 154 | 3.2 | 3.2 | 0.00 | 0.00 | 0.00 | 80 | 1006.9 |
| 20260507023436 | -1 | 154 | 1.6 | 3.2 | 0.00 | 0.00 | 0.00 | 82 | 1006.9 |
| 20260507021921 | -2 | 154 | 1.6 | 3.2 | 0.00 | 0.00 | 0.00 | 84 | 1007.0 |
| 20260507020406 | -2 | 154 | 1.6 | 3.2 | 0.00 | 0.00 | 0.00 | 85 | 1006.8 |
| 20260507013436 | -1 | 154 | 0.0 | 1.6 | 0.00 | 0.00 | 0.00 | 81 | 1006.8 |
| 20260507010406 | -1 | 154 | 0.0 | 1.6 | 0.00 | 0.00 | 0.00 | 81 | 1006.7 |
| 20260507004951 | -1 | 154 | 0.0 | 0.0 | 0.00 | 0.00 | 0.00 | 80 | 1006.7 |
| 20260507003437 | -1 | 154 | 0.0 | 0.0 | 0.00 | 0.00 | 0.00 | 81 | 1006.7 |
| 20260507001921 | -1 | 154 | 0.0 | 1.6 | 0.00 | 0.00 | 0.00 | 81 | 1006.5 |
| 20260507000406 | 0 | 154 | 1.6 | 3.2 | 0.00 | 0.00 | 0.00 | 79 | 1006.3 |
| 20260506234951 | 0 | 154 | 1.6 | 1.6 | 0.00 | 0.00 | 0.00 | 79 | 1006.5 |
| 20260506233436 | -1 | 154 | 0.0 | 0.0 | 0.00 | 0.00 | 0.00 | 80 | 1006.1 |
| 20260506231921 | -1 | 154 | 1.6 | 3.2 | 0.00 | 0.00 | 0.00 | 82 | 1006.2 |
| 20260506230406 | 0 | 154 | 0.0 | 0.0 | 0.00 | 0.00 | 0.00 | 81 | 1006.1 |
| 20260506224951 | 0 | 154 | 1.6 | 3.2 | 0.00 | 0.00 | 0.00 | 80 | 1005.9 |
| 20260506223436 | 0 | 173 | 3.2 | 3.2 | 0.00 | 0.00 | 0.00 | 79 | 1005.9 |
| 20260506221921 | 0 | 173 | 0.0 | 1.6 | 0.00 | 0.00 | 0.00 | 80 | 1005.9 |
| 20260506220405 | 0 | 208 | 0.0 | 1.6 | 0.00 | 0.00 | 0.00 | 79 | 1005.8 |
| 20260506214951 | 0 | 208 | 0.0 | 1.6 | 0.00 | 0.00 | 0.00 | 78 | 1005.7 |
| 20260506213436 | 0 | 208 | 1.6 | 3.2 | 0.00 | 0.00 | 0.00 | 76 | 1005.7 |
| 20260506211921 | 0 | 208 | 0.0 | 0.0 | 0.00 | 0.00 | 0.00 | 77 | 1005.4 |
| 20260506210405 | 0 | 208 | 0.0 | 1.6 | 0.00 | 0.00 | 0.00 | 76 | 1005.5 |
| 20260506204951 | 0 | 208 | 0.0 | 1.6 | 0.00 | 0.00 | 0.00 | 74 | 1005.4 |
| 20260506203437 | 0 | 208 | 0.0 | 1.6 | 0.00 | 0.00 | 0.00 | 74 | 1005.6 |
| 20260506201922 | 1 | 208 | 0.0 | 0.0 | 0.00 | 0.00 | 0.00 | 72 | 1005.5 |
| 20260506200406 | 1 | 208 | 0.0 | 1.6 | 0.00 | 0.00 | 0.00 | 70 | 1005.3 |
| 20260506194952 | 2 | 269 | 1.6 | 1.6 | 0.00 | 0.00 | 0.00 | 68 | 1005.4 |
| 20260506193437 | 2 | 269 | 0.0 | 0.0 | 0.00 | 0.00 | 0.00 | 64 | 1005.2 |
| 20260506191922 | 3 | 269 | 0.0 | 0.0 | 0.00 | 0.00 | 0.00 | 60 | 1005.1 |
| 20260506190407 | 5 | 268 | 0.0 | 1.6 | 0.00 | 0.00 | 0.00 | 56 | 1004.9 |
| 20260506184954 | 5 | 269 | 1.6 | 1.6 | 0.00 | 0.00 | 0.00 | 55 | 1004.8 |
| 20260506183438 | 6 | 250 | 1.6 | 4.8 | 0.00 | 0.00 | 0.00 | 54 | 1004.8 |
| 20260506181923 | 6 | 274 | 4.8 | 6.4 | 0.00 | 0.00 | 0.00 | 53 | 1004.7 |
| 20260506180408 | 7 | 234 | 1.6 | 3.2 | 0.00 | 0.00 | 0.00 | 51 | 1004.5 |
| 20260506174955 | 7 | 290 | 8.0 | 8.0 | 0.00 | 0.00 | 0.00 | 51 | 1004.2 |
| 20260506173439 | 7 | 267 | 3.2 | 4.8 | 0.00 | 0.00 | 0.00 | 52 | 1004.1 |
| 20260506171925 | 7 | 228 | 6.4 | 8.0 | 0.00 | 0.00 | 0.00 | 53 | 1004.0 |
| 20260506170410 | 7 | 265 | 6.4 | 8.0 | 0.00 | 0.00 | 0.00 | 52 | 1003.9 |
| 20260506163441 | 7 | 264 | 9.7 | 12.9 | 0.00 | 0.00 | 0.00 | 50 | 1003.5 |
| 20260506161926 | 7 | 308 | 4.8 | 6.4 | 0.00 | 0.00 | 0.00 | 50 | 1003.6 |
| 20260506160410 | 8 | 331 | 3.2 | 3.2 | 0.00 | 0.00 | 0.00 | 47 | 1003.5 |
| 20260506154957 | 8 | 271 | 6.4 | 12.9 | 0.00 | 0.00 | 0.00 | 45 | 1003.5 |
| 20260506153442 | 8 | 345 | 4.8 | 6.4 | 0.00 | 0.00 | 0.00 | 47 | 1003.2 |
| 20260506151927 | 7 | 294 | 4.8 | 6.4 | 0.00 | 0.00 | 0.00 | 48 | 1003.3 |
| 20260506150411 | 7 | 320 | 6.4 | 9.7 | 0.00 | 0.00 | 0.00 | 45 | 1003.2 |
| 20260506144958 | 7 | 231 | 3.2 | 4.8 | 0.00 | 0.00 | 0.00 | 48 | 1003.4 |
| 20260506141928 | 8 | 293 | 6.4 | 8.0 | 0.00 | 0.00 | 0.00 | 45 | 1003.0 |
| 20260506140413 | 7 | 323 | 8.0 | 9.7 | 0.00 | 0.00 | 0.00 | 47 | 1002.9 |
| 20260506134959 | 7 | 300 | 3.2 | 4.8 | 0.00 | 0.00 | 0.00 | 49 | 1003.1 |
| 20260506133443 | 7 | 331 | 8.0 | 12.9 | 0.00 | 0.00 | 0.00 | 48 | 1002.8 |
| 20260506131928 | 8 | 335 | 9.7 | 12.9 | 0.00 | 0.00 | 0.00 | 46 | 1002.9 |
| 20260506130413 | 7 | 296 | 6.4 | 6.4 | 0.00 | 0.00 | 0.00 | 49 | 1002.7 |
| 20260506124959 | 7 | 229 | 9.7 | 12.9 | 0.00 | 0.00 | 0.00 | 51 | 1002.7 |
| 20260506123444 | 7 | 253 | 11.3 | 14.5 | 0.00 | 0.00 | 0.00 | 50 | 1002.5 |
| 20260506121929 | 7 | 309 | 6.4 | 8.0 | 0.00 | 0.00 | 0.00 | 53 | 1002.5 |
| 20260506120414 | 6 | 281 | 14.5 | 17.7 | 0.00 | 0.00 | 0.00 | 54 | 1002.4 |
| 20260506113446 | 7 | 300 | 17.7 | 20.9 | 0.00 | 0.00 | 0.00 | 51 | 1002.2 |
| 20260506111931 | 7 | 251 | 16.1 | 19.3 | 0.00 | 0.00 | 0.00 | 52 | 1001.8 |
| 20260506110416 | 7 | 277 | 19.3 | 22.5 | 0.00 | 0.00 | 0.00 | 51 | 1002.0 |
| 20260506104901 | 7 | 229 | 8.0 | 14.5 | 0.00 | 0.00 | 0.00 | 50 | 1001.4 |
| 20260506103447 | 7 | 276 | 12.9 | 19.3 | 0.00 | 0.00 | 0.00 | 49 | 1001.3 |
| 20260506101931 | 7 | 276 | 16.1 | 20.9 | 0.00 | 0.00 | 0.00 | 47 | 1001.3 |